Tracking 28790 objects as of 19-Apr-2024
HD Live streaming from Space Station
objects crossing your sky now

PICOSAT 5

Track PICOSAT 5 now!
10-day predictions
PICOSAT 5 is classified as:


NORAD ID: 26093
Int'l Code: 2000-004L
Perigee: 690.4 km
Apogee: 730.4 km
Inclination: 100.2 °
Period: 98.8 minutes
Semi major axis: 7081 km
RCS: 0.0365 m2 (small)
Launch date: January 27, 2000
Source: United States (US)
Launch site: AIR FORCE WESTERN TEST RANGE (AFWTR)
Your satellite tracking list
Your tracking list is empty




NASA's NSSDC Master Catalog

Two Line Element Set (TLE):
1 26093U 00004L   24109.39038208  .00008907  00000-0  19874-2 0  9998
2 26093 100.1922  63.7819 0028232  20.7140 339.5189 14.56883863277064
Source of the keplerian elements: AFSPC